Weather History for PAGK - March, 2014

Change the Weather History Date:

Saturday, March 8, 2014

  Actual Average Record
Temperature  
Mean Temperature -2 °F -  
Max Temperature 12 °F 24 °F 47 °F (1965)
Min Temperature -16 °F 1 °F -45 °F (1972)
Degree Days  
Heating Degree Days 67    
Moisture  
Dew Point -8 °F    
Average Humidity 64    
Maximum Humidity 82    
Minimum Humidity 37    
Precipitation  
Precipitation 0.00 in - - ()
Sea Level Pressure  
Sea Level Pressure 29.35 in    
Wind  
Wind Speed 3 mph (North)    
Max Wind Speed 9 mph    
Max Gust Speed -    
Visibility 10 miles    
Events      
Averages and records for this station are not official NWS values.
T = Trace of Precipitation, MM = Missing Value Source: NWS Daily Summary

Daily Weather History Graph

Daily Weather History Graph

Search for Another Location

Airport or City:

Trip Planner

Search our weather history database for the weather conditions in past years. The results will help you decide how hot, cold, wet, or windy it might be!

Date:

Astronomy

Mar. 08, 2014 Rise Set
Actual Time 7:21 AM AKST 6:24 PM AKST
Civil Twilight 6:37 AM AKST 7:09 PM AKST
Nautical Twilight 5:45 AM AKST 8:01 PM AKST
Astronomical Twilight 4:51 AM AKST 8:56 PM AKST
Moon 10:14 AM AKST (3/8) 3:25 AM AKST (3/8)
Length of Visible Light 12h 32m
Length of Day
11h 03m
First Quarter, 53% of the Moon is Illuminated
Mar 8
First Quarter
Mar 16
Full
Mar 23
Last Quarter
Mar 30
New
Apr 7
First Quarter

Hourly Weather History & Observations

Time (AKST) Temp. Windchill Dew Point Humidity Pressure Visibility Wind Dir Wind Speed Gust Speed Precip Events Conditions
12:53 AM -5.1 °F -15.8 °F -9.9 °F 80% 29.48 in 10.0 mi NNE 4.6 mph - N/A   Clear
1:53 AM -7.1 °F -18.1 °F -11.9 °F 79% 29.47 in 10.0 mi NNE 4.6 mph - N/A   Clear
3:53 AM -13.0 °F -22.7 °F -17.0 °F 82% 29.47 in 10.0 mi NE 3.5 mph - N/A   Clear
4:53 AM -14.1 °F - -18.0 °F 82% 29.48 in 10.0 mi Calm Calm - N/A   Clear
5:53 AM -11.9 °F -21.5 °F -18.0 °F 74% 29.46 in 10.0 mi North 3.5 mph - N/A   Partly Cloudy
6:53 AM -9.9 °F -24.9 °F -14.1 °F 82% 29.44 in 10.0 mi NW 6.9 mph - N/A   Clear
7:53 AM -9.9 °F -21.5 °F -16.1 °F 74% 29.44 in 10.0 mi NNW 4.6 mph - N/A   Scattered Clouds
8:53 AM -6.0 °F - -11.9 °F 75% 29.42 in 10.0 mi Calm Calm - N/A   Clear
9:53 AM -0.9 °F - -9.0 °F 69% 29.39 in 10.0 mi Calm Calm - N/A   Clear
10:53 AM -0.9 °F -8.9 °F -9.0 °F 69% 29.38 in 10.0 mi SE 3.5 mph - N/A   Clear
11:53 AM -0.9 °F -8.9 °F -8.0 °F 72% 29.37 in 10.0 mi SSE 3.5 mph - N/A   Clear
12:53 PM 3.9 °F -3.4 °F -7.1 °F 60% 29.35 in 10.0 mi SE 3.5 mph - N/A   Clear
1:53 PM 7.0 °F - -5.1 °F 58% 29.33 in 10.0 mi Calm Calm - N/A   Mostly Cloudy
2:53 PM 10.0 °F - -4.0 °F 53% 29.31 in 10.0 mi Calm Calm - N/A   Mostly Cloudy
3:53 PM 10.9 °F - -4.0 °F 51% 29.30 in 10.0 mi Calm Calm - N/A   Overcast
4:53 PM 12.9 °F - -2.9 °F 49% 29.28 in 10.0 mi Calm Calm - N/A   Overcast
5:53 PM 9.0 °F - -2.0 °F 61% 29.27 in 10.0 mi Calm Calm - N/A   Partly Cloudy
6:53 PM 12.0 °F 0.5 °F -2.9 °F 51% 29.26 in 10.0 mi NNW 8.1 mph - N/A   Mostly Cloudy
7:53 PM 10.9 °F -0.8 °F -4.0 °F 51% 29.25 in 10.0 mi NNW 8.1 mph - N/A   Overcast
8:53 PM 10.0 °F -2.9 °F -4.0 °F 53% 29.24 in 10.0 mi NNW 9.2 mph - N/A   Overcast
9:53 PM 10.9 °F -1.8 °F -2.9 °F 54% 29.23 in 10.0 mi North 9.2 mph - N/A   Overcast
10:53 PM 8.1 °F 1.4 °F -2.0 °F 64% 29.24 in 10.0 mi North 3.5 mph - N/A   Overcast
11:53 PM 7.0 °F -3.3 °F -2.0 °F 67% 29.26 in 10.0 mi NNE 5.8 mph - N/A   Overcast